Provo, UT

11:38 AM MST on November 24, 2017 (GMT -0700)
Provo Municipal

Weather History for KPVU - May, 2013

Change the Weather History Date:

Thursday, May 2, 2013

  Actual Average Record
Temperature  
Mean Temperature 44 °F -  
Max Temperature 59 °F 63 °F 84 °F (1986)
Min Temperature 30 °F 39 °F 26 °F (2008)
Degree Days  
Heating Degree Days 20    
Moisture  
Dew Point 23 °F    
Average Humidity 47    
Maximum Humidity 75    
Minimum Humidity 18    
Precipitation  
Precipitation 0.00 in - - ()
Sea Level Pressure  
Sea Level Pressure 30.55 in    
Wind  
Wind Speed 5 mph (WSW)    
Max Wind Speed 12 mph    
Max Gust Speed -    
Visibility 12 miles    
Events      
Averages and records for this station are not official NWS values.
T = Trace of Precipitation, MM = Missing Value Source: NWS Daily Summary

Daily Weather History Graph

Daily Weather History Graph

Search for Another Location

Airport or City:

Trip Planner

Search our weather history database for the weather conditions in past years. The results will help you decide how hot, cold, wet, or windy it might be!

Date:

Astronomy

May. 02, 2013 Rise Set
Actual Time 6:24 AM MDT 8:23 PM MDT
Civil Twilight 5:55 AM MDT 8:53 PM MDT
Nautical Twilight 5:19 AM MDT 9:29 PM MDT
Astronomical Twilight 4:40 AM MDT 10:08 PM MDT
Moon 2:15 AM MDT (5/2) 1:16 PM MDT (5/2)
Length of Visible Light 14h 57m
Length of Day
13h 58m
Waning Gibbous, 47% of the Moon is Illuminated
May 2
Waning Gibbous
May 9
New
May 17
First Quarter
May 24
Full
May 31
Last Quarter

Hourly Weather History & Observations

Time (MDT) Temp. Windchill Dew Point Humidity Pressure Visibility Wind Dir Wind Speed Gust Speed Precip Events Conditions
12:15 AM 37.4 °F 33.8 °F 21.2 °F 52% 30.57 in 10.0 mi East 4.6 mph - N/A   Clear
12:55 AM 37.4 °F - 21.2 °F 52% 30.58 in 10.0 mi Calm Calm - N/A   Clear
1:15 AM 37.4 °F 32.8 °F 21.2 °F 52% 30.58 in 10.0 mi SE 5.8 mph - N/A   Clear
1:35 AM 35.6 °F 29.2 °F 21.2 °F 56% 30.58 in 10.0 mi SE 8.1 mph - N/A   Clear
1:55 AM 39.2 °F - 19.4 °F 45% 30.58 in 10.0 mi Calm Calm - N/A   Clear
2:15 AM 37.4 °F 33.8 °F 19.4 °F 48% 30.59 in 10.0 mi East 4.6 mph - N/A   Clear
2:35 AM 35.6 °F - 21.2 °F 56% 30.59 in 10.0 mi Calm Calm - N/A   Clear
2:55 AM 35.6 °F 29.9 °F 19.4 °F 52% 30.59 in 10.0 mi South 6.9 mph - N/A   Clear
3:35 AM 33.8 °F 29.6 °F 21.2 °F 60% 30.59 in 10.0 mi ESE 4.6 mph - N/A   Clear
3:55 AM 33.8 °F 30.8 °F 21.2 °F 60% 30.60 in 10.0 mi South 3.5 mph - N/A   Clear
4:35 AM 33.8 °F 29.6 °F 19.4 °F 56% 30.60 in 10.0 mi SSE 4.6 mph - N/A   Clear
4:55 AM 33.8 °F - 24.8 °F 70% 30.61 in 10.0 mi Calm Calm - N/A   Clear
5:35 AM 32.0 °F - 19.4 °F 60% 30.61 in 10.0 mi Calm Calm - N/A   Clear
5:55 AM 33.8 °F 29.6 °F 24.8 °F 70% 30.62 in 10.0 mi SSE 4.6 mph - N/A   Clear
6:15 AM 30.2 °F - 23.0 °F 75% 30.62 in 10.0 mi Calm Calm - N/A   Clear
6:35 AM 30.2 °F 25.4 °F 21.2 °F 69% 30.63 in 10.0 mi East 4.6 mph - N/A   Clear
6:53 AM 32.0 °F - 24.8 °F 75% 30.64 in 15.0 mi Calm Calm - N/A   Clear
7:49 AM 35.6 °F 29.9 °F 26.6 °F 70% 30.66 in 15.0 mi SE 6.9 mph - N/A   Clear
8:55 AM 42.8 °F 40.1 °F 24.8 °F 49% 30.66 in 15.0 mi SW 4.6 mph - N/A   Clear
9:53 AM 44.6 °F 43.1 °F 21.2 °F 39% 30.66 in 15.0 mi West 3.5 mph - N/A   Clear
10:51 AM 46.4 °F 43.5 °F 24.8 °F 43% 30.66 in 15.0 mi SSW 5.8 mph - N/A   Clear
11:50 AM 50.0 °F - 15.8 °F 26% 30.64 in 15.0 mi West 4.6 mph - N/A   Clear
12:55 PM 53.6 °F - 10.4 °F 18% 30.60 in 15.0 mi WNW 9.2 mph - N/A   Clear
1:57 PM 53.6 °F - 10.4 °F 18% 30.58 in 15.0 mi NW 8.1 mph - N/A   Partly Cloudy
2:48 PM 55.4 °F - 12.2 °F 18% 30.55 in 15.0 mi NNW 5.8 mph - N/A   Partly Cloudy
3:47 PM 57.2 °F - 15.8 °F 20% 30.53 in 15.0 mi West 9.2 mph - N/A   Partly Cloudy
4:49 PM 57.2 °F - 19.4 °F 23% 30.49 in 15.0 mi SW 8.1 mph - N/A   Partly Cloudy
5:47 PM 59.0 °F - 19.4 °F 22% 30.47 in 15.0 mi West 5.8 mph - N/A   Partly Cloudy
6:57 PM 57.2 °F - 26.6 °F 31% 30.44 in 15.0 mi SW 5.8 mph - N/A   Scattered Clouds
8:50 PM 51.8 °F - 28.4 °F 41% 30.42 in 15.0 mi West 5.8 mph - N/A   Scattered Clouds
9:15 PM 51.8 °F - 30.2 °F 44% 30.42 in 10.0 mi NNW 5.8 mph - N/A   Clear
9:35 PM 51.8 °F - 30.2 °F 44% 30.42 in 10.0 mi NW 11.5 mph - N/A   Clear
9:55 PM 51.8 °F - 30.2 °F 44% 30.42 in 10.0 mi NW 11.5 mph - N/A   Clear
10:15 PM 48.2 °F - 30.2 °F 50% 30.42 in 10.0 mi NW 10.4 mph - N/A   Clear
10:35 PM 50.0 °F - 28.4 °F 43% 30.42 in 10.0 mi NW 10.4 mph - N/A   Clear
10:55 PM 48.2 °F - 28.4 °F 46% 30.41 in 10.0 mi NNW 8.1 mph - N/A   Clear
11:15 PM 48.2 °F - 30.2 °F 50% 30.41 in 10.0 mi NNW 8.1 mph - N/A   Clear
11:35 PM 46.4 °F 45.2 °F 28.4 °F 50% 30.41 in 10.0 mi North 3.5 mph - N/A   Clear
11:55 PM 46.4 °F 43.5 °F 30.2 °F 53% 30.41 in 10.0 mi SE 5.8 mph - N/A   Clear